Weather History for Seattle Boeing, WA

Change the Weather History Date:

Wednesday, January 22, 2014

  Actual Average Record
Temperature  
Mean Temperature 48 °F -  
Max Temperature 50 °F 45 °F 60 °F (1981)
Min Temperature 45 °F 35 °F 19 °F (1962)
Degree Days  
Heating Degree Days 18    
Moisture  
Dew Point 41 °F    
Average Humidity 80    
Maximum Humidity 90    
Minimum Humidity 71    
Precipitation  
Precipitation 0.00 in - - ()
Sea Level Pressure  
Sea Level Pressure 30.40 in    
Wind  
Wind Speed 4 mph (NNE)    
Max Wind Speed 8 mph    
Max Gust Speed -    
Visibility 8 miles    
Events      
Averages and records for this station are not official NWS values.
T = Trace of Precipitation, MM = Missing Value Source: NWS Daily Summary

Daily Weather History Graph

Daily Weather History Graph

Search for Another Location

Airport:

Trip Planner

Search our weather history database for the weather conditions in past years. The results will help you decide how hot, cold, wet, or windy it might be!

Date:

Astronomy

Jan. 22, 2014 Rise Set
Actual Time 7:46 AM PST 4:55 PM PST
Civil Twilight 7:12 AM PST 5:29 PM PST
Nautical Twilight 6:35 AM PST 6:07 PM PST
Astronomical Twilight 5:58 AM PST 6:43 PM PST
Moon No Moon Rise 10:21 AM PST
Length of Visible Light 10h 16m
Length of Day
9h 08m
Waning Gibbous, 64% of the Moon is Illuminated
Jan 22
Waning Gibbous
Jan 23
Last Quarter
Jan 30
New
Feb 6
First Quarter
Feb 14
Full

Hourly Weather History & Observations

Time (PST) Temp. Windchill Dew Point Humidity Pressure Visibility Wind Dir Wind Speed Gust Speed Precip Events Conditions
12:53 AM 46.0 °F 41.9 °F 39.9 °F 79% 30.35 in 5.0 mi SE 8.1 mph - N/A   Haze
1:53 AM 45.0 °F 41.2 °F 41.0 °F 86% 30.35 in 5.0 mi SE 6.9 mph - N/A   Overcast
2:53 AM 45.0 °F 43.5 °F 42.1 °F 90% 30.38 in 6.0 mi ESE 3.5 mph - N/A   Overcast
3:53 AM 45.0 °F - 42.1 °F 90% 30.38 in 6.0 mi Calm Calm - N/A   Overcast
4:53 AM 45.0 °F 43.5 °F 42.1 °F 90% 30.38 in 6.0 mi SSE 3.5 mph - N/A   Overcast
5:53 AM 46.0 °F - 42.1 °F 86% 30.39 in 6.0 mi Calm Calm - N/A   Overcast
6:53 AM 46.0 °F - 42.1 °F 86% 30.39 in 6.0 mi Calm Calm - N/A   Overcast
7:53 AM 46.0 °F - 41.0 °F 83% 30.38 in 5.0 mi Calm Calm - N/A   Haze
8:50 AM 46.4 °F - 42.8 °F 87% 30.38 in 8.0 mi Calm Calm - N/A   Overcast
8:53 AM 46.0 °F - 42.1 °F 86% 30.38 in 8.0 mi Calm Calm - N/A   Overcast
9:53 AM 46.9 °F - 41.0 °F 80% 30.40 in 10.0 mi Calm Calm - N/A   Overcast
10:53 AM 48.9 °F - 42.1 °F 77% 30.42 in 10.0 mi Calm Calm - N/A   Overcast
11:00 AM 48.2 °F - 42.8 °F 82% 30.42 in 10.0 mi Calm Calm - N/A   Overcast
11:20 AM 48.2 °F - 42.8 °F 82% 30.42 in 7.0 mi ENE 5.8 mph - N/A   Overcast
11:53 AM 48.9 °F - 42.1 °F 77% 30.43 in 8.0 mi NE 4.6 mph - N/A   Overcast
12:53 PM 48.9 °F - 42.1 °F 77% 30.42 in 10.0 mi NE 5.8 mph - N/A   Overcast
1:53 PM 50.0 °F - 42.1 °F 74% 30.42 in 10.0 mi NNE 3.5 mph - N/A   Overcast
2:53 PM 50.0 °F - 42.1 °F 74% 30.41 in 10.0 mi North 3.5 mph - N/A   Overcast
3:53 PM 48.9 °F - 42.1 °F 77% 30.41 in 10.0 mi Calm Calm - N/A   Scattered Clouds
4:53 PM 48.9 °F - 41.0 °F 74% 30.40 in 10.0 mi NNW 5.8 mph - N/A   Mostly Cloudy
5:53 PM 48.0 °F - 39.9 °F 74% 30.40 in 10.0 mi North 3.5 mph - N/A   Overcast
6:53 PM 48.0 °F - 39.0 °F 71% 30.41 in 10.0 mi NNW 4.6 mph - N/A   Overcast
7:53 PM 46.9 °F - 39.0 °F 74% 30.41 in 10.0 mi Variable 3.5 mph - N/A   Overcast
8:53 PM 46.9 °F - 37.9 °F 71% 30.44 in 10.0 mi NNW 5.8 mph - N/A   Overcast
9:53 PM 46.9 °F - 39.0 °F 74% 30.44 in 10.0 mi Calm Calm - N/A   Overcast
10:53 PM 45.0 °F 43.5 °F 37.9 °F 76% 30.45 in 10.0 mi North 3.5 mph - N/A   Mostly Cloudy
11:53 PM 45.0 °F 43.5 °F 37.9 °F 76% 30.45 in 10.0 mi NNW 3.5 mph - N/A   Overcast